CAPE
1681 1215 1595 1940 2088 1845 1844 1850 1801 1787 1915 1693 1764 1849 1939 1883 1790 1739 1594 1597 1528 1456 1430 1407 1287 1111 981 865 733 600 517 479 512 618 752 754 813 1143 1181 546 593 534 841
1849 1225 1574 1962 2007 1836 1888 1881 1885 1892 1806 1596 1681 1762 1739 1636 1679 1732 1586 1528 1374 1262 1272 1405 1363 1328 1047 696 567 533 522 479 501 572 703 802 984 1207 1210 575 606 539 869
1898 1423 1596 1765 1848 1835 1896 1885 1830 1771 1728 1703 1687 1651 1597 1650 1711 1803 1809 1891 1745 1463 1439 1447 1572 1552 1184 901 732 629 548 496 487 567 842 1077 1551 1302 1270 842 646 728 833
1837 1509 1554 1583 1767 1882 1943 2011 2075 2116 2130 2032 1913 1846 1847 1752 1705 1572 1531 1598 1559 1440 1500 1747 1447 1337 1207 996 824 675 572 495 494 748 952 551 1017 1611 1506 1194 750 788 762
1791 1731 1810 1554 1644 1769 1760 1818 1869 2008 1903 1844 1655 1587 1659 1792 1595 1478 1445 1404 1346 1451 1372 1379 1303 982 733 632 616 576 535 494 569 608 506 773 816 1524 1730 1399 1263 926 764
1744 1928 1200 1338 1375 1523 1572 1542 1453 1385 1194 1111 1216 1181 1211 1489 1397 1343 1271 1223 1337 1397 1302 1249 1268 1000 766 654 628 554 488 531 612 858 363 675 1050 962 1382 1694 1243 877 832
1711 1498 1109 1094 1162 1208 1191 1006 1051 998 957 944 1049 1034 918 869 491 430 483 506 532 575 551 515 513 489 475 501 537 481 477 528 562 421 299 357 1456 1108 1111 1246 1617 1065 880
1918 1751 1321 827 836 773 647 498 437 485 519 528 708 597 249 108 53 39 40 33 25 10 7 14 19 53 74 90 99 97 83 66 393 789 480 1248 708 1170 1305 1280 1600 1383 974
1608 1434 1053 851 728 263 188 143 95 90 88 90 68 55 63 61 35 6 0 0 0 0 0 0 0 0 0 8 31 32 9 0 68 418 413 534 332 809 1249 1494 1417 1715 1265
1320 1216 1111 999 655 303 152 52 18 8 12 15 5 5 0 0 0 0 0 0 0 0 0 0 0 0 0 0 0 0 0 0 24 31 147 91 87 208 724 1345 1523 1548 1762
1111 1095 1189 880 796 375 44 15 2 0 0 0 0 0 0 0 0 0 0 0 0 0 0 0 0 0 0 0 0 0 0 0 0 6 0 0 0 63 371 844 1189 1557 1633
1101 1200 1015 862 604 259 0 0 0 0 0 0 0 0 0 0 0 0 0 0 0 0 0 0 0 0 0 0 0 0 0 0 0 0 0 0 0 18 289 651 969 971 835
1203 1077 865 734 424 106 0 0 0 0 0 0 0 0 0 0 0 0 0 0 0 0 0 0 0 0 0 0 0 0 0 0 0 0 0 2 11 10 0 42 372 579 443
1189 944 1078 867 426 3 0 0 0 0 0 0 0 0 0 0 0 0 0 0 0 0 0 0 0 0 0 0 0 0 0 0 0 0 0 0 1 5 5 0 40 129 361
1689 909 793 847 449 0 0 0 0 0 0 0 0 0 0 0 0 0 0 0 0 0 0 0 0 0 0 0 0 0 0 0 0 0 0 0 0 5 8 8 9 0 0
1735 1050 235 616 365 0 0 0 0 0 0 0 0 0 0 0 0 0 0 0 0 0 0 0 0 0 0 0 0 0 0 0 0 0 0 0 0 0 0 0 12 12 10
1771 1180 198 312 213 0 0 0 0 0 0 0 0 0 0 0 0 0 0 0 0 0 0 0 0 0 0 0 0 0 0 0 0 0 0 0 0 0 0 0 0 6 8
1544 1284 177 8 166 0 0 0 0 0 0 0 0 0 0 0 0 0 0 0 0 0 0 0 0 0 0 0 0 0 0 0 0 0 0 0 0 0 0 0 0 0 0
1274 1207 265 0 92 14 0 0 0 0 0 0 0 0 0 0 0 0 0 0 0 0 0 0 0 0 0 0 0 0 0 0 0 0 0 0 0 0 0 0 0 0 0
1234 1386 264 2 74 44 0 0 0 0 0 0 0 0 0 0 0 0 0 0 0 0 0 0 0 0 0 0 0 0 0 0 0 0 0 0 0 0 0 0 0 0 0
1201 1026 236 0 57 118 4 0 0 0 0 0 0 0 0 0 0 0 0 0 0 0 0 0 0 0 0 0 0 0 0 0 0 0 0 0 0 0 0 0 0 0 0
950 998 127 0 41 308 165 0 0 0 0 0 0 0 0 0 0 0 0 0 0 0 0 0 0 0 0 0 0 0 0 0 0 0 0 0 0 0 0 0 0 0 0
863 889 146 7 17 442 367 36 4 0 0 0 0 0 0 0 0 0 0 0 0 0 0 0 0 0 0 0 0 0 0 0 0 0 0 0 0 0 0 0 0 0 0
666 534 211 18 0 323 480 301 214 107 31 1 0 0 0 0 0 0 0 0 0 0 0 0 0 0 0 0 0 0 0 0 0 0 0 0 0 0 0 0 0 0 0
298 532 147 8 3 70 254 363 195 160 106 31 3 0 0 0 0 0 0 0 0 0 0 0 0 0 0 0 0 0 0 0 0 0 0 0 0 0 0 0 0 0 0
115 370 66 100 5 16 170 170 100 129 115 62 46 1 0 0 0 0 0 0 0 0 0 0 0 0 0 0 0 0 0 0 0 0 0 0 0 0 0 0 0 0 0
CIN
-109 -308 -218 -126 -66 -72 -42 -15 -8 -1 0 -4 -4 0 0 0 0 0 -1 -1 0 0 0 0 0 0 -8 -23 -48 -80 -103 -115 -105 -81 -65 -62 -51 -24 -16 -83 -92 -45 -44
-133 -294 -215 -115 -84 -78 -37 -17 -1 0 0 -6 -3 -1 -1 -2 -1 0 -1 -1 -2 -1 0 0 0 0 -9 -56 -84 -97 -109 -116 -114 -101 -84 -76 -46 -24 -16 -86 -86 -83 -33
-154 -220 -177 -138 -107 -80 -45 -24 -3 0 0 0 0 -1 -1 0 0 0 0 0 0 0 0 -2 0 0 -1 -19 -44 -75 -106 -116 -118 -110 -101 -28 -9 -39 -16 -42 -72 -60 -36
-143 -190 -151 -152 -105 -58 -37 -12 0 -1 0 -1 -1 -2 -2 -1 0 0 0 -1 0 -1 0 0 0 0 0 -5 -20 -45 -84 -118 -128 -109 -35 -4 -1 -40 -12 -12 -42 -39 -32
-127 -128 -105 -130 -103 -53 -37 -11 -7 -4 -6 -4 -5 -4 -5 -4 -4 0 0 -2 -3 -5 -1 -1 0 -3 -11 -25 -31 -48 -90 -118 -124 -121 -7 -1 -3 -36 -8 -4 -2 -10 -22
-101 -95 -196 -144 -122 -77 -47 -33 -22 -19 -24 -19 -11 -11 -6 -1 0 0 -1 -1 0 -1 -1 0 0 0 -8 -15 -29 -46 -89 -108 -133 -3 -21 -26 -1 -73 -13 0 -15 -29 -24
-140 -163 -193 -157 -122 -100 -87 -104 -71 -63 -41 -28 -10 -2 -2 -9 -35 -50 -37 -25 -13 -8 -7 -11 -13 -20 -29 -29 -33 -55 -73 -81 -51 -12 -13 -15 -33 -57 -25 -11 -1 -32 -42
-110 -104 -80 -200 -184 -177 -199 -217 -204 -175 -148 -125 -61 -70 -149 -196 -193 -143 -128 -136 -144 -146 -148 -185 -68 -141 -124 -149 -146 -156 -176 -192 -46 -2 -10 -10 -52 -28 -5 -7 0 -19 -43
-147 -116 -177 -134 -207 -299 -281 -270 -320 -322 -281 -262 -277 -224 -215 -182 -181 -194 0 0 0 0 0 0 0 0 0 -195 -167 -173 -208 0 -133 -1 -1 -55 -44 -31 0 0 0 0 -24
-179 -150 -157 -159 -206 -284 -297 -326 -333 -304 -273 -240 -253 -258 0 0 0 0 0 0 0 0 0 0 0 0 0 0 0 0 0 0 -101 -48 -78 -81 -130 -102 -8 0 0 0 0
-175 -172 -141 -183 -172 -249 -349 -353 -96 0 0 0 0 0 0 0 0 0 0 0 0 0 0 0 0 0 0 0 0 0 0 0 0 -11 0 0 -10 -167 -68 -2 0 0 0
-183 -162 -175 -184 -225 -289 0 0 0 0 0 0 0 0 0 0 0 0 0 0 0 0 0 0 0 0 0 0 0 0 0 0 0 0 0 0 0 -54 -84 -21 -1 -3 -18
-157 -156 -182 -192 -245 -311 0 0 0 0 0 0 0 0 0 0 0 0 0 0 0 0 0 0 0 0 0 0 0 0 0 0 0 0 0 0 0 0 0 -154 -69 -47 -69
-139 -154 -101 -82 -50 -69 0 0 0 0 0 0 0 0 0 0 0 0 0 0 0 0 0 0 0 0 0 0 0 0 0 0 0 0 0 0 0 0 0 0 -175 -130 -49
-65 -154 -121 -98 -72 0 0 0 0 0 0 0 0 0 0 0 0 0 0 0 0 0 0 0 0 0 0 0 0 0 0 0 0 0 0 0 0 0 0 0 0 0 0
-18 -107 -261 -118 -100 0 0 0 0 0 0 0 0 0 0 0 0 0 0 0 0 0 0 0 0 0 0 0 0 0 0 0 0 0 0 0 0 0 0 0 0 0 0
-3 -51 -249 -163 -116 0 0 0 0 0 0 0 0 0 0 0 0 0 0 0 0 0 0 0 0 0 0 0 0 0 0 0 0 0 0 0 0 0 0 0 0 0 0
-1 -24 -207 -40 -133 0 0 0 0 0 0 0 0 0 0 0 0 0 0 0 0 0 0 0 0 0 0 0 0 0 0 0 0 0 0 0 0 0 0 0 0 0 0
-2 -13 -160 0 -117 -107 0 0 0 0 0 0 0 0 0 0 0 0 0 0 0 0 0 0 0 0 0 0 0 0 0 0 0 0 0 0 0 0 0 0 0 0 0
0 -3 -146 0 -157 -126 0 0 0 0 0 0 0 0 0 0 0 0 0 0 0 0 0 0 0 0 0 0 0 0 0 0 0 0 0 0 0 0 0 0 0 0 0
-6 -21 -158 0 -147 -104 -147 0 0 0 0 0 0 0 0 0 0 0 0 0 0 0 0 0 0 0 0 0 0 0 0 0 0 0 0 0 0 0 0 0 0 0 0
-24 -19 -219 0 -213 -74 -64 0 0 0 0 0 0 0 0 0 0 0 0 0 0 0 0 0 0 0 0 0 0 0 0 0 0 0 0 0 0 0 0 0 0 0 0
-33 -29 -169 0 -96 -74 -55 -68 -29 0 0 0 0 0 0 0 0 0 0 0 0 0 0 0 0 0 0 0 0 0 0 0 0 0 0 0 0 0 0 0 0 0 0
-21 -25 -92 0 0 -87 -32 -37 -41 -55 -46 -15 0 0 0 0 0 0 0 0 0 0 0 0 0 0 0 0 0 0 0 0 0 0 0 0 0 0 0 0 0 0 0
-37 -18 -85 -7 0 -122 -46 -18 -37 -33 -33 -27 -10 0 0 0 0 0 0 0 0 0 0 0 0 0 0 0 0 0 0 0 0 0 0 0 0 0 0 0 0 0 0
-28 -24 -82 -59 0 -124 -24 -16 -29 -34 -18 -17 -16 -9 0 0 0 0 0 0 0 0 0 0 0 0 0 0 0 0 0 0 0 0 0 0 0 0 0 0 0 0 0
Wind_Speed
31 33 26 24 23 23 21 22 22 22 22 24 25 24 24 23 21 21 21 22 22 20 18 17 17 18 17 17 16 16 15 14 13 13 11 12 15 15 14 13 7 19 16
37 33 28 30 29 29 28 27 27 26 26 26 26 25 23 22 21 19 20 21 22 20 20 18 17 19 19 20 19 18 17 16 16 14 12 13 17 18 16 15 14 16 16
37 34 34 32 35 33 34 33 31 31 29 29 28 28 26 24 22 20 19 19 21 21 18 18 18 20 21 21 20 19 20 18 16 13 10 12 25 22 15 15 14 15 15
40 36 37 35 38 37 36 36 33 32 30 30 30 29 28 27 23 21 19 18 18 19 19 20 20 20 21 21 20 20 21 19 16 12 14 13 23 26 20 15 12 13 13
42 40 43 36 38 40 39 37 33 31 31 31 30 28 28 28 27 21 20 17 16 20 21 19 20 21 21 21 20 20 20 17 12 10 12 19 10 23 19 10 6 8 9
42 46 43 36 40 43 40 35 32 33 31 31 31 31 30 28 25 23 20 19 19 20 21 21 20 21 20 20 19 20 19 14 10 12 17 22 16 22 14 7 2 2 2
39 44 43 42 42 41 36 34 32 32 32 30 30 31 32 32 29 26 26 27 25 25 24 25 23 22 22 22 20 20 18 12 10 14 14 15 24 18 13 9 3 1 2
40 39 42 42 41 35 34 33 33 33 33 34 35 37 36 35 nan nan nan nan nan nan nan nan nan nan nan nan nan nan nan nan 10 13 18 25 27 22 16 10 6 1 3
42 38 39 40 36 36 35 36 nan nan nan nan nan nan nan nan nan nan nan nan nan nan nan nan nan nan nan nan nan nan nan nan nan 15 11 26 29 28 18 12 8 2 4
39 38 36 32 33 33 34 nan nan nan nan nan nan nan nan nan nan nan nan nan nan nan nan nan nan nan nan nan nan nan nan nan nan nan 24 nan nan 27 25 23 17 9 5
34 30 33 31 34 33 nan nan nan nan nan nan nan nan nan nan nan nan nan nan nan nan nan nan nan nan nan nan nan nan nan nan nan nan nan nan nan nan 30 28 26 23 12
30 30 31 33 35 34 nan nan nan nan nan nan nan nan nan nan nan nan nan nan nan nan nan nan nan nan nan nan nan nan nan nan nan nan nan nan nan nan 37 37 36 32 29
29 28 30 33 35 33 nan nan nan nan nan nan nan nan nan nan nan nan nan nan nan nan nan nan nan nan nan nan nan nan nan nan nan nan nan nan nan nan nan nan 41 41 39
31 29 32 35 36 nan nan nan nan nan nan nan nan nan nan nan nan nan nan nan nan nan nan nan nan nan nan nan nan nan nan nan nan nan nan nan nan nan nan nan nan 47 46
34 36 36 38 38 nan nan nan nan nan nan nan nan nan nan nan nan nan nan nan nan nan nan nan nan nan nan nan nan nan nan nan nan nan nan nan nan nan nan nan nan nan nan
33 37 36 37 38 nan nan nan nan nan nan nan nan nan nan nan nan nan nan nan nan nan nan nan nan nan nan nan nan nan nan nan nan nan nan nan nan nan nan nan nan nan nan
31 36 35 38 39 nan nan nan nan nan nan nan nan nan nan nan nan nan nan nan nan nan nan nan nan nan nan nan nan nan nan nan nan nan nan nan nan nan nan nan nan nan nan
32 35 35 nan 37 nan nan nan nan nan nan nan nan nan nan nan nan nan nan nan nan nan nan nan nan nan nan nan nan nan nan nan nan nan nan nan nan nan nan nan nan nan nan
33 35 36 nan nan nan nan nan nan nan nan nan nan nan nan nan nan nan nan nan nan nan nan nan nan nan nan nan nan nan nan nan nan nan nan nan nan nan nan nan nan nan nan
37 38 37 nan nan nan nan nan nan nan nan nan nan nan nan nan nan nan nan nan nan nan nan nan nan nan nan nan nan nan nan nan nan nan nan nan nan nan nan nan nan nan nan
40 42 42 nan nan 41 nan nan nan nan nan nan nan nan nan nan nan nan nan nan nan nan nan nan nan nan nan nan nan nan nan nan nan nan nan nan nan nan nan nan nan nan nan
38 44 45 nan nan 43 45 nan nan nan nan nan nan nan nan nan nan nan nan nan nan nan nan nan nan nan nan nan nan nan nan nan nan nan nan nan nan nan nan nan nan nan nan
40 46 46 nan nan 48 50 nan nan nan nan nan nan nan nan nan nan nan nan nan nan nan nan nan nan nan nan nan nan nan nan nan nan nan nan nan nan nan nan nan nan nan nan
48 49 50 nan nan 49 50 52 53 53 nan nan nan nan nan nan nan nan nan nan nan nan nan nan nan nan nan nan nan nan nan nan nan nan nan nan nan nan nan nan nan nan nan
53 52 55 nan nan nan 49 51 52 51 54 nan nan nan nan nan nan nan nan nan nan nan nan nan nan nan nan nan nan nan nan nan nan nan nan nan nan nan nan nan nan nan nan
62 58 nan 58 nan nan 51 52 55 50 54 nan nan nan nan nan nan nan nan nan nan nan nan nan nan nan nan nan nan nan nan nan nan nan nan nan nan nan nan nan nan nan nan
Wind_Direction
292 295 307 308 311 316 320 321 325 323 319 319 321 324 324 324 323 329 316 309 307 299 283 274 270 269 272 273 275 278 283 286 290 291 295 300 294 282 284 270 233 269 269
288 298 302 305 311 314 318 320 322 320 318 317 318 318 317 318 317 323 320 309 308 308 298 286 280 279 276 276 282 288 293 300 303 307 321 327 304 282 279 271 258 264 266
291 298 308 307 310 311 315 317 319 319 318 319 317 317 317 318 315 312 315 307 308 306 306 299 289 278 278 277 281 289 293 295 298 313 337 342 299 278 275 276 271 269 270
292 302 306 308 313 310 309 311 314 315 315 313 313 318 319 317 314 310 311 310 292 302 297 290 280 276 271 273 278 282 288 294 301 323 340 298 283 275 268 271 270 270 273
294 306 303 308 311 313 312 312 314 312 311 311 308 309 312 312 311 307 305 307 291 278 289 286 281 275 272 272 274 279 282 287 301 321 285 277 269 264 258 262 292 287 253
295 290 299 298 299 302 297 290 292 294 296 291 287 290 294 293 295 295 293 293 279 267 272 281 280 275 276 276 275 274 275 281 287 320 291 298 270 254 232 209 196 210 224
276 283 294 289 294 299 295 295 293 293 295 296 293 291 292 291 289 287 282 283 275 264 263 267 270 270 270 272 273 274 274 272 288 280 285 273 247 222 193 185 133 31 342
280 284 291 289 293 294 296 300 301 299 296 292 290 286 286 286 nan nan nan nan nan nan nan nan nan nan nan nan nan nan nan nan 285 290 272 267 211 204 191 190 184 316 332
283 284 288 295 294 288 291 292 nan nan nan nan nan nan nan nan nan nan nan nan nan nan nan nan nan nan nan nan nan nan nan nan nan 273 286 242 204 200 200 210 200 241 324
282 286 294 299 298 296 295 nan nan nan nan nan nan nan nan nan nan nan nan nan nan nan nan nan nan nan nan nan nan nan nan nan nan nan 258 nan nan 206 211 219 216 226 289
284 293 292 290 293 295 nan nan nan nan nan nan nan nan nan nan nan nan nan nan nan nan nan nan nan nan nan nan nan nan nan nan nan nan nan nan nan nan 222 227 225 229 244
289 287 288 290 292 295 nan nan nan nan nan nan nan nan nan nan nan nan nan nan nan nan nan nan nan nan nan nan nan nan nan nan nan nan nan nan nan nan 233 234 235 237 237
282 282 288 288 289 294 nan nan nan nan nan nan nan nan nan nan nan nan nan nan nan nan nan nan nan nan nan nan nan nan nan nan nan nan nan nan nan nan nan nan 239 240 239
284 283 283 287 289 nan nan nan nan nan nan nan nan nan nan nan nan nan nan nan nan nan nan nan nan nan nan nan nan nan nan nan nan nan nan nan nan nan nan nan nan 244 245
297 294 294 293 292 nan nan nan nan nan nan nan nan nan nan nan nan nan nan nan nan nan nan nan nan nan nan nan nan nan nan nan nan nan nan nan nan nan nan nan nan nan nan
297 298 296 299 297 nan nan nan nan nan nan nan nan nan nan nan nan nan nan nan nan nan nan nan nan nan nan nan nan nan nan nan nan nan nan nan nan nan nan nan nan nan nan
296 300 303 302 299 nan nan nan nan nan nan nan nan nan nan nan nan nan nan nan nan nan nan nan nan nan nan nan nan nan nan nan nan nan nan nan nan nan nan nan nan nan nan
294 299 295 nan 294 nan nan nan nan nan nan nan nan nan nan nan nan nan nan nan nan nan nan nan nan nan nan nan nan nan nan nan nan nan nan nan nan nan nan nan nan nan nan
291 291 292 nan nan nan nan nan nan nan nan nan nan nan nan nan nan nan nan nan nan nan nan nan nan nan nan nan nan nan nan nan nan nan nan nan nan nan nan nan nan nan nan
283 287 291 nan nan nan nan nan nan nan nan nan nan nan nan nan nan nan nan nan nan nan nan nan nan nan nan nan nan nan nan nan nan nan nan nan nan nan nan nan nan nan nan
286 290 291 nan nan 282 nan nan nan nan nan nan nan nan nan nan nan nan nan nan nan nan nan nan nan nan nan nan nan nan nan nan nan nan nan nan nan nan nan nan nan nan nan
287 291 293 nan nan 286 281 nan nan nan nan nan nan nan nan nan nan nan nan nan nan nan nan nan nan nan nan nan nan nan nan nan nan nan nan nan nan nan nan nan nan nan nan
288 290 288 nan nan 287 285 nan nan nan nan nan nan nan nan nan nan nan nan nan nan nan nan nan nan nan nan nan nan nan nan nan nan nan nan nan nan nan nan nan nan nan nan
282 284 288 nan nan 287 287 283 286 283 nan nan nan nan nan nan nan nan nan nan nan nan nan nan nan nan nan nan nan nan nan nan nan nan nan nan nan nan nan nan nan nan nan
280 280 280 nan nan nan 282 281 279 279 275 nan nan nan nan nan nan nan nan nan nan nan nan nan nan nan nan nan nan nan nan nan nan nan nan nan nan nan nan nan nan nan nan
274 274 nan 277 nan nan 273 275 279 275 274 nan nan nan nan nan nan nan nan nan nan nan nan nan nan nan nan nan nan nan nan nan nan nan nan nan nan nan nan nan nan nan nan